FLOCK 4BE 7

导读 | 星芒AI

FLOCK 4BE 7 是Planet Labs公司发射的一颗地球观测卫星,属于其“SkySat”星座的一部分。该卫星主要用于高分辨率光学成像,支持全球范围内的地表监测。它能够提供亚米级分辨率的影像,广泛应用于环境监测、农业管理、灾害评估等领域。FLOCK 4BE 7 采用先进的遥感技术,具备快速重访能力和高精度数据采集功能,为用户提供实时、准确的地理信息数据。

基本信息
目录编号:
60481
目录名称:
FLOCK 4BE 7
国际标识:
2024-149P
轨道中心:
EARTH
卫星名称:
FLOCK 4BE 7
卫星全名:
FLOCK 4BE 7
卫星状态:
在轨 (已飞行478 天)
发射日期:
2024-08-16 UTC
国别 :
美国 (US)
星等 :
--
轨道信息
数据来源 国际轨道数据
星历时间: 2025-12-07T05:39:15+0800
19小时前
查看轨道信息
半长轴: 6845.322km
偏心率: 0.0002972
轨道倾角: 97.395°
近地点辐角 209.040°
升交点赤经 58.290°
平近点角 151.068°
近地点: 465.152km
远地点: 469.222km
周期: 93.940分钟
每日圈数: 15.328935
详细信息
使用方式:
暂无
2D轨道图
3D轨道图
轨道高度分析图
轨道倾角分析图
轨道综合分析图
查看轨道综合分析图